EW8277 Weather Reports


time (UTC)temp
C
wind
direction
speed
KPH
gust
KPH
rain 1hr
cm
rain 24hr
cm
rain mn
cm
humidity
%
barometer
mb
20260906120105 22 140 0.0 0.0 0.00 0.00 0.00 100 1011.6
20260906114556 22 140 0.0 0.0 0.00 0.00 0.00 100 1011.7
20260906113059 22 140 0.0 0.0 0.00 0.00 0.00 100 1011.4
20260906111549 22 140 0.0 0.0 0.00 0.00 0.00 100 1011.3
20260906110045 22 140 0.0 0.0 0.00 0.00 0.00 100 1011.0
20260906104538 22 140 0.0 0.0 0.00 0.00 0.00 100 1010.9
20260906103033 22 140 0.0 0.0 0.00 0.00 0.00 100 1010.8
20260906101529 22 140 0.0 0.0 0.00 0.00 0.00 100 1010.5
20260906100021 22 140 0.0 0.0 0.00 0.00 0.00 100 1010.3
20260906094527 22 140 0.0 0.0 0.00 0.00 0.00 100 1010.2
20260906093104 22 140 0.0 0.0 0.00 0.00 0.00 100 1009.9
20260906091553 22 140 0.0 0.0 0.00 0.00 0.00 100 1009.7
20260906090029 22 140 0.0 0.0 0.00 0.00 0.00 100 1009.6
20260906084533 22 140 0.0 0.0 0.00 0.00 0.00 100 1009.5
20260906083009 22 140 0.0 0.0 0.00 0.00 0.00 100 1009.5
20260906081515 22 140 0.0 0.0 0.00 0.00 0.00 100 1009.4
20260906080100 22 140 0.0 0.0 0.00 0.00 0.00 100 1009.3
20260906074556 22 140 0.0 0.0 0.00 0.00 0.00 100 1009.2
20260906073053 22 140 0.0 0.0 0.00 0.00 0.00 100 1008.9
20260906071547 22 140 0.0 0.0 0.00 0.00 0.00 100 1008.8
20260906070043 22 140 0.0 0.0 0.00 0.00 0.00 100 1008.9
20260906064538 22 140 0.0 0.0 0.00 0.00 0.00 100 1009.1
20260906063017 22 140 0.0 0.0 0.00 0.00 0.00 100 1009.1
20260906061516 22 140 0.0 0.0 0.00 0.00 0.00 100 1009.2
20260906060057 22 140 0.0 0.0 0.00 0.00 0.00 100 1009.3
20260906054554 22 140 0.0 0.0 0.00 0.00 0.00 100 1009.4
20260906053048 23 140 0.0 0.0 0.00 0.00 0.00 100 1009.6
20260906051545 22 140 0.0 0.0 0.00 0.00 0.00 100 1009.8
20260906050040 23 140 0.0 0.0 0.00 0.00 0.00 100 1009.9
20260906044541 23 140 0.0 0.0 0.00 0.00 0.00 100 1009.9
20260906043033 23 140 0.0 0.0 0.00 0.00 0.00 100 1010.1
20260906041527 23 140 0.0 0.0 0.00 0.00 0.00 100 1010.2
20260906040005 23 140 0.0 0.0 0.00 0.00 0.00 100 1010.2
20260906034501 23 140 0.0 0.0 0.00 0.00 0.00 100 1010.0
20260906033040 23 140 0.0 0.0 0.00 0.00 0.00 100 1010.2
20260906031547 23 140 0.0 0.0 0.00 0.00 0.00 100 1010.1
20260906030013 23 140 0.0 0.0 0.00 0.00 0.00 100 1010.2
20260906024510 23 140 0.0 0.0 0.00 0.00 0.00 100 1010.2
20260906023051 23 140 0.0 0.0 0.00 0.00 0.00 100 1010.1
20260906021552 23 140 0.0 0.0 0.00 0.00 0.00 100 1009.8
20260906020030 23 140 0.0 0.0 0.00 0.00 0.00 100 1009.6
20260906014518 23 140 0.0 0.0 0.00 0.00 0.00 100 1009.9
20260906013057 23 140 0.0 0.0 0.00 0.00 0.00 100 1009.9
20260906011557 24 140 0.0 0.0 0.00 0.00 0.00 100 1009.9
20260906010031 24 140 0.0 0.0 0.00 0.00 0.00 100 1009.6
20260906004527 24 140 0.0 0.0 0.00 0.00 0.00 100 1009.5
20260906003019 24 140 0.0 0.0 0.00 0.00 0.00 100 1009.3
20260906001506 24 140 0.0 0.0 0.00 0.00 0.00 100 1009.1
20260906000001 25 140 0.0 0.0 0.00 0.00 0.00 100 1008.9
20260905234559 25 140 0.0 0.0 0.00 0.00 0.00 100 1008.7
20260905233102 25 140 0.0 0.0 0.00 0.00 0.00 100 1008.4
20260905231548 25 140 0.0 0.0 0.00 0.00 0.00 100 1008.3
20260905230050 25 140 0.0 0.0 0.00 0.00 0.00 100 1008.0
20260905224539 25 140 0.0 0.0 0.00 0.00 0.00 100 1008.0
20260905223031 24 140 0.0 0.0 0.00 0.00 0.00 100 1008.1
20260905221533 24 140 0.0 0.0 0.00 0.00 0.00 100 1008.4
20260905220100 24 140 0.0 0.0 0.00 0.00 0.00 100 1008.4
20260905214548 24 82 0.0 0.0 0.00 0.00 0.00 100 1008.0
20260905213035 24 82 0.0 0.0 0.00 0.00 0.00 100 1007.8
20260905211540 24 82 0.0 0.0 0.00 0.00 0.00 100 1007.7
20260905210025 24 82 0.0 0.0 0.00 0.00 0.00 100 1007.9
20260905204520 25 82 0.0 0.0 0.00 0.00 0.00 100 1007.9
20260905203016 24 82 0.0 0.0 0.00 0.00 0.00 100 1007.6
20260905201511 24 82 0.0 0.0 0.00 0.00 0.00 100 1007.6
20260905200008 24 82 0.0 0.0 0.00 0.00 0.00 100 1008.0
20260905194502 25 82 0.0 0.0 0.00 0.00 0.00 30 1009.0
20260905193058 29 354 0.0 0.0 0.00 0.00 0.00 69 1009.6
20260905191541 31 33 0.0 0.0 0.00 0.00 0.00 65 1008.0
20260905190033 34 240 0.0 0.0 0.00 0.00 0.00 58 1007.6
20260905184511 36 240 0.0 0.0 0.00 0.00 0.00 56 1007.2
20260905183007 36 274 0.0 0.0 0.00 0.00 0.00 54 1007.5
20260905181545 36 251 0.0 0.0 0.00 0.00 0.00 53 1007.3
20260905180041 36 256 0.0 0.0 0.00 0.00 0.00 55 1007.9
20260905174526 36 301 0.0 0.0 0.00 0.00 0.00 56 1008.3
20260905173023 36 296 0.0 0.0 0.00 0.00 0.00 56 1008.8
20260905171533 36 236 0.0 0.0 0.00 0.00 0.00 57 1009.0
20260905170013 36 251 0.0 0.0 0.00 0.00 0.00 58 1009.2
20260905164510 35 277 0.0 0.0 0.00 0.00 0.00 59 1009.5
20260905163003 35 256 0.0 0.0 0.00 0.00 0.00 59 1009.6
20260905161604 35 243 0.0 0.0 0.00 0.00 0.00 59 1009.8
20260905160055 34 244 0.0 0.0 0.00 0.00 0.00 61 1010.0
20260905154551 33 244 0.0 0.0 0.00 0.00 0.00 61 1010.2
20260905153034 33 244 0.0 0.0 0.00 0.00 0.00 63 1010.4
20260905151531 32 292 0.0 0.0 0.00 0.00 0.00 65 1010.6
20260905150026 32 30 0.0 0.0 0.00 0.00 0.00 65 1010.6
20260905144534 31 300 0.0 0.0 0.00 0.00 0.00 65 1010.6
20260905143017 30 256 0.0 0.0 0.00 0.00 0.00 62 1010.6
20260905141512 29 256 0.0 0.0 0.00 0.00 0.00 60 1010.5
20260905140009 28 256 0.0 0.0 0.00 0.00 0.00 52 1010.5
20260905134551 27 232 0.0 0.0 0.00 0.00 0.00 42 1010.5
20260905133042 26 251 0.0 0.0 0.00 0.00 0.00 18 1010.6
20260905131521 26 251 0.0 0.0 0.00 0.00 0.00 100 1010.5
20260905130019 25 251 0.0 0.0 0.00 0.00 0.00 100 1010.6
20260905124555 24 247 0.0 0.0 0.00 0.00 0.00 100 1010.7
20260905123052 23 42 0.0 0.0 0.00 0.00 0.00 100 1010.7
20260905121535 23 42 0.0 0.0 0.00 0.00 0.00 100 1010.6